Flag for Austria Weather past 2 weeks in Gmünd, Lower Austria, Austria

Now
43 °F

Quite cool.


Feels Like: 40 °F
Forecast: 33 / 49 °F
Wind: 6 mph from Northwest

Location: Retz

Current Time: Apr 28, 2015 at 10:08:57 PM

Latest Report: Apr 28, 2015 at 9:00 PM


Visibility: N/A

Pressure: 30.03 "Hg

Humidity: 81%

Dew point: 38 °F

Location of GmündLocation

Historic Weather in Gmünd — Graph

°F

Gmünd temperature yesterday

Maximum temperature yesterday: 76 °F (at 6:00 PM)
Minimum temperature yesterday: 51 °F (at 6:00 AM)
Average temperature yesterday: 63 °F

Past Weeks' High & Low Weather Summary

 TemperatureHumidityPressure
High76 °F (Apr 16, 2:00 PM)93% (Apr 17, 4:00 PM)30.42 "Hg (Apr 17, 4:00 PM)
Low37 °F (Apr 19, 2:00 AM)23% (Apr 21, 6:00 PM)29.47 "Hg (Apr 27, 6:00 PM)
Average56 °F55%30.00 "Hg
* Reported Apr 13 9:00 PM — Apr 28 9:00 PM, Gmünd, Weather by CustomWeather, © 2015

Note: Actual official high and low records may vary slightly from our data, if they occured in-between our weather recording intervals... More about our weather records

Advertising

Gmünd weather history for previous 24 hours

 ConditionsComfort  
Time TempWeatherWind HumidityBarometerVisibility
9:00 PM
Tue, Apr 28
43 °FQuite cool.6 mph81%30.03 "HgN/A
8:00 PM43 °FLight rain. Overcast.7 mph88%29.98 "Hg5 mi
7:00 PM44 °FQuite cool.6 mph86%29.93 "HgN/A
6:00 PM46 °FCool.12 mph75%29.87 "HgN/A
5:00 PM48 °FCool.9 mph74%29.80 "HgN/A
4:00 PM49 °FCool.13 mph78%29.74 "HgN/A
3:00 PM54 °FCool.14 mph76%29.69 "HgN/A
2:00 PM61 °FPartly sunny.12 mph68%29.64 "Hg17 mi
1:00 PM63 °FMild.8 mph64%29.62 "HgN/A
12:00 PM64 °FMild.5 mph60%29.61 "HgN/A
11:00 AM62 °FCool.3 mph63%29.60 "HgN/A
10:00 AM62 °FCool.1 mph64%29.58 "HgN/A
9:00 AM58 °FCool.1 mph70%29.57 "HgN/A
8:00 AM55 °FPassing clouds.2 mph77%29.56 "Hg11 mi
11:00 PM
Mon, Apr 27
62 °FRefreshingly cool.2 mph57%29.50 "HgN/A
10:00 PM64 °FMild.2 mph54%29.50 "HgN/A
Weather by CustomWeather, © 2015

See weather overviewHow to use our weather pages